Location: Newark
(33.1119°N, 7.4058°W)
Time: 19:24:23
(UTC+00:00)

Hubble Space Telescope - Pass Details

Date: 21 November 2019
Orbit: 536 x 540 km, 28.5° (Epoch: 06 December)

Event Time Altitude Azimuth Distance (km) Brightness Sun altitude
Rises 19:18:16 0° 256° (WSW) 2,669 5.8 -23.5°
Reaches altitude 10° 19:20:36 10° 249° (WSW) 1,779 4.4 -24.0°
Enters shadow 19:24:04 41° 196° (SSW) 777 1.7 -24.7°
